[[{"header":{"parameterUnit":"m.s-1","parameterCategory":1,"la1":30.2991,"la2":30.254,"lo1":-89.0895,"lo2":-89.0444,"dy":0.0017,"dx":0.0017,"nx":28,"ny":28,"refTime":"2024-04-07T09:00:00:Z","depth":0,"parameterNumber":2,"parameterNumberName":"U-component_of_WINDS"},"data":[0,0,0,0,0,0,0,0,0,0,0,0,0,0,0,0,0,0,0,0,0,0,0,0,0,0,0,0,0,0,0,0,0,0,0,0,0,0,0,0,0,0,0,0,0,0,0,0,0,0,0,0,0,0,0,0,0,0,-3.4705,-3.4705,0,-3.469,-3.469,-3.4689,-3.4652,-3.4651,-3.465,-3.4649,-3.4635,-3.4635,-3.4636,0,0,0,0,0,0,0,0,0,0,0,0,0,-3.4702,-3.4702,-3.4705,-3.4705,-3.4705,-3.469,-3.469,-3.4689,-3.4652,-3.4651,-3.465,-3.4649,-3.4635,-3.4635,-3.4636,0,0,0,0,0,0,0,0,0,0,0,0,0,-3.4697,-3.4702,-3.4705,-3.4684,-3.4682,-3.469,-3.469,-3.4689,-3.4652,-3.4651,-3.465,-3.4648,-3.4635,-3.4635,-3.4636,-3.4663,0,0,-3.4637,-3.4638,0,0,0,0,0,0,0,0,-3.4697,-3.4697,-3.4687,-3.4685,-3.4683,-3.4671,-3.4683,-3.4681,-3.4652,-3.4663,-3.4649,-3.4648,-3.4648,-3.4647,-3.4647,-3.4662,-3.4662,-3.4637,-3.4638,-3.4638,-3.4638,0,0,0,0,0,0,0,-3.4698,-3.4697,-3.4699,-3.4687,-3.4685,-3.4676,-3.4674,-3.4683,-3.4663,-3.4662,-3.466,-3.4658,-3.4647,-3.4647,-3.4647,-3.4662,-3.4637,-3.4638,-3.4638,-3.4638,-3.4697,-3.4699,0,0,0,0,0,0,-3.4701,-3.4698,-3.47,-3.4699,-3.4687,-3.4677,-3.4674,-3.4676,-3.4662,-3.4659,-3.4659,-3.4656,-3.4646,-3.4646,-3.4646,-3.4676,-3.4638,-3.4638,-3.4639,-3.4696,-3.4698,-3.4699,0,0,0,0,0,0,-3.4701,-3.4701,-3.47,-3.4698,-3.4697,-3.4678,-3.4681,-3.4677,-3.4677,-3.466,-3.4656,-3.4663,-3.4646,-3.4645,-3.4659,-3.4675,-3.4639,-3.4639,-3.4695,-3.4697,-3.4698,-3.4737,0,0,0,0,0,0,-3.4701,-3.4702,-3.4712,-3.4698,-3.4697,-3.4713,-3.4682,-3.4677,-3.4678,-3.4674,-3.4663,-3.466,-3.4645,-3.4658,-3.4659,-3.4675,-3.464,-3.4693,-3.4696,-3.4698,-3.4734,-3.474,-3.4745,0,0,0,0,0,-3.4701,-3.4724,-3.4712,-3.4713,-3.4709,-3.4714,-3.4713,-3.4695,-3.4679,-3.4689,-3.4678,-3.466,-3.4673,-3.466,-3.4661,-3.4677,-3.4692,-3.4695,-3.4698,-3.4731,-3.4738,-3.4744,0,0,0,0,0,0,-3.474,-3.4721,-3.4709,-3.4728,-3.4723,-3.4708,-3.4719,-3.4704,-3.4703,-3.47,-3.4678,-3.4676,-3.4692,-3.4686,-3.4671,-3.4702,-3.468,-3.4683,-3.4705,-3.4712,-3.4717,-3.4717,-3.464,0,0,0,0,0,-3.4751,-3.4756,-3.474,-3.4758,-3.4756,-3.4738,-3.474,-3.4726,-3.472,-3.4718,-3.4709,-3.4704,-3.4707,-3.4709,-3.4711,-3.4733,-3.473,-3.4745,-3.475,-3.4755,-3.4757,-3.4767,-3.4773,-3.4708,-3.4708,-3.4708,0,0,-3.4773,-3.4764,-3.4768,-3.4766,-3.476,-3.4766,-3.4737,-3.4745,-3.4749,-3.472,-3.4731,-3.4724,-3.4717,-3.4735,-3.4742,-3.4731,-3.4775,-3.4758,-3.4762,-3.4762,-3.4771,-3.4777,-3.4782,-3.471,-3.471,-3.4709,0,0,-3.4816,-3.481,-3.4824,-3.4819,-3.4811,-3.4799,-3.4802,-3.479,-3.4784,-3.4795,-3.4773,-3.4778,-3.4784,-3.4779,-3.4778,-3.482,-3.4802,-3.4821,-3.4848,-3.4858,-3.4863,-3.4868,-3.4881,-3.4886,-3.4824,-3.4824,-3.4824,0,-3.4845,-3.4853,-3.4833,-3.4842,-3.4841,-3.4815,-3.4828,-3.4824,-3.4818,-3.4818,-3.4805,-3.4811,-3.4805,-3.482,-3.483,-3.4831,-3.4833,-3.4821,-3.4864,-3.4869,-3.4872,-3.4885,-3.489,-3.4826,-3.4826,-3.4826,-3.4826,0,-3.4888,-3.4893,-3.4905,-3.4898,-3.4899,-3.491,-3.4893,-3.4896,-3.4882,-3.4872,-3.4883,-3.4875,-3.4874,-3.4877,-3.4865,-3.4891,-3.4884,-3.4868,-3.4845,-3.4881,-3.4892,-3.4897,-3.4829,-3.4829,-3.4828,-3.4827,0,0,-3.4954,-3.4936,-3.4941,-3.4937,-3.4926,-3.493,-3.494,-3.4939,-3.4941,-3.4938,-3.4945,-3.4951,-3.4936,-3.4934,-3.4921,-3.493,-3.4962,-3.4913,-3.4912,-3.4921,-3.4988,-3.4999,-3.5005,-3.4951,-3.4952,-3.4952,-3.4988,0,-3.4993,-3.5008,-3.4991,-3.501,-3.5014,-3.499,-3.4998,-3.4993,-3.4983,-3.4986,-3.4976,-3.4979,-3.496,-3.4959,-3.4967,-3.4956,-3.4975,-3.4954,-3.4957,-3.4957,-3.4957,-3.5011,-3.5022,-3.5057,-3.4993,-3.4994,-3.4994,0,-3.5041,-3.5038,-3.5057,-3.5044,-3.5046,-3.5053,-3.505,-3.5053,-3.5047,-3.5039,-3.5037,-3.5021,-3.503,-3.5009,-3.502,-3.5006,-3.5007,-3.5002,-3.5003,-3.5001,-3.4977,-3.5009,-3.5067,-3.5072,-3.5001,-3.5001,-3.5,0,-3.5085,-3.5087,-3.5098,-3.5096,-3.5082,-3.5087,-3.5082,-3.5074,-3.5074,-3.5072,-3.5071,-3.5071,-3.507,-3.507,-3.5054,-3.504,-3.5067,-3.5044,-3.506,-3.506,-3.5065,-3.5065,-3.5123,-3.5069,-3.5069,-3.5069,-3.5069,0,-3.513,-3.5142,-3.5118,-3.5124,-3.5137,-3.5118,-3.5131,-3.5123,-3.5116,-3.5121,-3.51,-3.5105,-3.5085,-3.5088,-3.5076,-3.5086,-3.5086,-3.508,-3.5076,-3.5081,-3.5081,-3.508,-3.5076,-3.507,-3.507,-3.5069,-3.5069,0,-3.5181,-3.5165,-3.5175,-3.5161,-3.5158,-3.5168,-3.5155,-3.5161,-3.515,-3.5156,-3.5157,-3.514,-3.5142,-3.5127,-3.5126,-3.5118,-3.5134,-3.5127,-3.5136,-3.5133,-3.5149,-3.5147,-3.5206,-3.5213,-3.5156,-3.5157,-3.5157,0,-3.5209,-3.5218,-3.5204,-3.5205,-3.52,-3.5203,-3.5203,-3.5184,-3.5185,-3.5177,-3.5184,-3.5184,-3.5183,-3.5188,-3.5176,-3.5175,-3.5167,-3.5188,-3.5167,-3.5171,-3.5165,-3.5164,-3.5164,-3.5192,-3.5193,-3.5193,-3.5194,0,-3.5261,-3.5253,-3.5253,-3.525,-3.525,-3.5247,-3.5243,-3.5246,-3.5225,-3.5227,-3.5228,-3.5228,-3.5227,-3.5227,-3.5224,-3.5218,-3.5202,-3.5201,-3.5204,-3.5208,-3.5212,-3.5208,-3.5146,-3.5199,-3.5198,-3.5198,-3.5198,-3.5197,-3.5301,-3.5307,-3.5297,-3.5298,-3.5293,-3.5289,-3.5293,-3.5283,-3.5284,-3.5281,-3.527,-3.5273,-3.5266,-3.526,-3.5256,-3.5258,-3.5248,-3.5253,-3.5254,-3.5255,-3.5257,-3.5213,-3.5258,-3.5257,-3.5257,-3.5257,-3.5257,0,-3.535,-3.5343,-3.5344,-3.5338,-3.5338,-3.5323,-3.5317,-3.5319,-3.5321,-3.5316,-3.5315,-3.5316,-3.5316,-3.5304,-3.5303,-3.5307,-3.53,-3.5307,-3.5306,-3.5304,-3.5267,-3.5264,-3.5313,-3.5313,-3.5313,-3.5313,-3.5313,-3.5313,-3.5376,-3.5384,-3.5375,-3.5381,-3.5374,-3.5376,-3.5374,-3.537,-3.5365,-3.5368,-3.5367,-3.5359,-3.5351,-3.5349,-3.5348,-3.5344,-3.5344,-3.5354,-3.5348,-3.5313,-3.5307,-3.5302,-3.5298,-3.5354,-3.5354,-3.5384,-3.5385,-3.5385]},{"header":{"parameterUnit":"m.s-1","parameterCategory":1,"la1":30.2991,"la2":30.254,"lo1":-89.0895,"lo2":-89.0444,"dy":0.0017,"dx":0.0017,"nx":28,"ny":28,"refTime":"2024-04-07T09:00:00:Z","depth":0,"parameterNumber":3,"parameterNumberName":"V-component_of_WINDS"},"data":[0,0,0,0,0,0,0,0,0,0,0,0,0,0,0,0,0,0,0,0,0,0,0,0,0,0,0,0,0,0,0,0,0,0,0,0,0,0,0,0,0,0,0,0,0,0,0,0,0,0,0,0,0,0,0,0,0,0,3.9506,3.9507,0,3.9561,3.9562,3.9562,3.9552,3.9551,3.955,3.9549,3.9602,3.9604,3.9606,0,0,0,0,0,0,0,0,0,0,0,0,0,3.9391,3.9393,3.9506,3.9507,3.9508,3.9561,3.9562,3.9562,3.9552,3.9551,3.9549,3.9548,3.9601,3.9604,3.9606,0,0,0,0,0,0,0,0,0,0,0,0,0,3.9443,3.9394,3.9506,3.9509,3.951,3.9561,3.9562,3.9563,3.9552,3.9551,3.9549,3.9548,3.96,3.9603,3.9607,3.9658,0,0,3.9617,3.9619,0,0,0,0,0,0,0,0,3.944,3.9447,3.9508,3.9509,3.951,3.9548,3.954,3.9594,3.9552,3.9536,3.9549,3.9547,3.9585,3.9589,3.9603,3.966,3.9662,3.9618,3.962,3.9621,3.9622,0,0,0,0,0,0,0,3.9436,3.9444,3.9528,3.9509,3.951,3.9507,3.9512,3.955,3.9568,3.9537,3.9537,3.9543,3.9585,3.9599,3.9604,3.9663,3.9618,3.9621,3.9623,3.9624,3.9767,3.9768,0,0,0,0,0,0,3.9432,3.9442,3.9526,3.9529,3.947,3.951,3.9516,3.9537,3.9567,3.9571,3.9545,3.9543,3.9594,3.96,3.9606,3.9668,3.9621,3.9625,3.9627,3.9765,3.9767,3.9769,0,0,0,0,0,0,3.9429,3.944,3.9524,3.9485,3.9496,3.9514,3.9537,3.9539,3.9553,3.9573,3.9576,3.9556,3.9593,3.9601,3.9645,3.967,3.9626,3.9629,3.9763,3.9765,3.9768,3.9793,0,0,0,0,0,0,3.9426,3.9439,3.9458,3.9486,3.9498,3.9563,3.9538,3.9541,3.956,3.9558,3.9585,3.9588,3.9593,3.964,3.9649,3.9674,3.9632,3.9761,3.9764,3.9767,3.979,3.9796,3.9802,0,0,0,0,0,3.9422,3.9462,3.946,3.947,3.9523,3.9564,3.9571,3.9577,3.9562,3.9582,3.9595,3.9587,3.9666,3.9645,3.9654,3.9681,3.9759,3.9763,3.9767,3.9788,3.9795,3.9801,0,0,0,0,0,0,3.9436,3.9466,3.9463,3.9514,3.9537,3.9563,3.9588,3.9585,3.9612,3.9609,3.9614,3.962,3.9666,3.9678,3.9654,3.9733,3.971,3.9716,3.9723,3.973,3.9736,3.9732,3.9635,0,0,0,0,0,3.9445,3.9477,3.9501,3.9543,3.9555,3.957,3.9588,3.9591,3.9614,3.9624,3.964,3.9662,3.9692,3.9712,3.9741,3.9792,3.9798,3.9815,3.9821,3.9825,3.983,3.986,3.9868,3.9781,3.9781,3.9781,0,0,3.9463,3.9484,3.9503,3.9547,3.9565,3.9597,3.9578,3.9612,3.9637,3.9629,3.9672,3.9685,3.9711,3.9759,3.9781,3.9771,3.9856,3.983,3.9834,3.9836,3.9864,3.9873,3.988,3.9784,3.9783,3.9783,0,0,3.9514,3.9533,3.9571,3.959,3.9619,3.9629,3.9638,3.9665,3.9673,3.9718,3.9713,3.9741,3.9793,3.9812,3.9828,3.9888,3.9882,3.9897,3.9927,3.9955,3.9962,3.9968,3.999,3.9998,3.9902,3.9902,3.9902,0,3.9533,3.9583,3.959,3.9626,3.9646,3.9642,3.9681,3.9698,3.9734,3.9748,3.9736,3.9802,3.9818,3.9872,3.9887,3.99,3.9911,3.9894,3.9961,3.9967,3.9973,3.9994,4.0002,3.9904,3.9904,3.9904,3.9904,0,3.9606,3.964,3.9667,3.9704,3.9727,3.9764,3.9777,3.9798,3.98,3.9811,3.9856,3.9877,3.991,3.9923,3.9924,3.9978,3.997,3.9959,3.9937,3.9982,4.0002,4.0011,3.9906,3.9906,3.9905,3.9905,0,0,3.9665,3.9707,3.9717,3.9735,3.9767,3.9793,3.9831,3.9865,3.9884,3.9909,3.9941,3.9986,3.9976,3.9995,3.9998,4.0023,4.0071,4.0009,4.001,4.0021,4.0132,4.014,4.0149,4.0068,4.0069,4.007,4.013,0,3.9719,3.9786,3.9795,3.9854,3.9886,3.9884,3.9917,3.994,3.9952,3.998,3.9993,4.0025,4.001,4.0021,4.0046,4.006,4.0093,4.0056,4.0096,4.0098,4.009,4.016,4.0168,4.0223,4.0138,4.0139,4.014,0,3.9791,3.982,3.9883,3.9913,3.9927,3.9956,3.9989,4.0017,4.0044,4.005,4.0072,4.0073,4.0111,4.0088,4.0141,4.0115,4.0133,4.0142,4.0144,4.0148,4.0122,4.0166,4.0241,4.025,4.0152,4.0151,4.0151,0,3.9829,3.9884,3.9929,3.9944,3.998,4.0001,4.0016,4.0041,4.0062,4.0091,4.0104,4.0136,4.0154,4.0179,4.0188,4.017,4.0241,4.0218,4.0247,4.0247,4.0262,4.0261,4.0341,4.0273,4.0273,4.0272,4.0272,0,3.9888,3.9927,3.9947,3.9975,4.0019,4.0028,4.0071,4.0085,4.0108,4.0139,4.0138,4.0167,4.0177,4.0207,4.0214,4.0258,4.0265,4.0272,4.0273,4.0272,4.0271,4.0283,4.028,4.0275,4.0274,4.0274,4.0273,0,3.9937,3.9953,4.0002,4.0033,4.0041,4.0072,4.0098,4.0125,4.0137,4.0176,4.0185,4.0204,4.0239,4.0251,4.0293,4.0299,4.0349,4.0347,4.0341,4.0341,4.037,4.0367,4.0461,4.0474,4.0397,4.0397,4.0398,0,3.9975,4.0005,4.0039,4.0061,4.0078,4.0111,4.0133,4.0144,4.0166,4.02,4.0223,4.0259,4.0288,4.0345,4.0362,4.0394,4.0393,4.0424,4.0398,4.0396,4.0394,4.0392,4.0396,4.0429,4.0429,4.043,4.043,0,4.0039,4.0046,4.0078,4.0113,4.014,4.0167,4.0194,4.0211,4.0226,4.0252,4.0289,4.0312,4.0357,4.0392,4.0426,4.0441,4.0438,4.0439,4.0447,4.0446,4.0442,4.0445,4.0354,4.0436,4.0436,4.0435,4.0435,4.0435,4.0084,4.0111,4.014,4.0176,4.0198,4.0224,4.0251,4.0268,4.03,4.0338,4.0342,4.0383,4.0409,4.0455,4.0472,4.0504,4.0495,4.0507,4.051,4.0513,4.0516,4.0437,4.051,4.0509,4.0509,4.0509,4.0509,0,4.0149,4.0168,4.0201,4.024,4.0269,4.0266,4.0296,4.032,4.0356,4.0382,4.0411,4.0454,4.0489,4.051,4.0545,4.0566,4.0566,4.0575,4.0573,4.0577,4.0521,4.0511,4.0574,4.0574,4.0574,4.0574,4.0574,4.0574,4.0186,4.0233,4.0243,4.03,4.0319,4.036,4.0378,4.0401,4.0422,4.0472,4.0501,4.0515,4.0539,4.0576,4.0608,4.0613,4.0626,4.0636,4.064,4.0587,4.0581,4.0574,4.0564,4.0638,4.0639,4.0693,4.0694,4.0694]}]]